W5XN Weather Reports


time (UTC)temp
F
wind
direction
speed
knots
gust
knots
rain 1hr
in
rain 24hr
in
rain mn
in
humidity
%
barometer
mb
20260510164318 76 81 0.9 1.7 0.00 0.00 0.00 81 1016.3
20260510163818 77 56 0.9 1.7 0.00 0.00 0.00 80 1016.4
20260510163314 78 77 1.7 2.6 0.00 0.00 0.00 77 1016.2
20260510162814 77 47 0.0 0.0 0.00 0.00 0.00 80 1016.6
20260510162311 77 317 0.0 1.7 0.00 0.00 0.00 80 1016.3
20260510161807 75 119 0.9 1.7 0.00 0.00 0.00 84 1016.4
20260510161303 75 122 0.0 1.7 0.00 0.00 0.00 82 1016.4
20260510160800 76 114 2.6 2.6 0.00 0.00 0.00 81 1016.3
20260510160256 76 23 2.6 4.3 0.00 0.00 0.00 80 1016.3
20260510155751 76 28 0.0 0.0 0.00 0.00 0.00 82 1016.2
20260510155248 75 29 0.0 1.7 0.00 0.00 0.00 81 1016.4
20260510154743 76 31 0.0 1.7 0.00 0.00 0.00 85 1016.5
20260510154240 75 32 1.7 1.7 0.00 0.00 0.00 84 1016.3
20260510153735 74 31 1.7 1.7 0.00 0.00 0.00 85 1016.6
20260510153231 73 39 0.9 1.7 0.00 0.00 0.00 85 1016.4
20260510152728 73 22 0.0 1.7 0.00 0.00 0.00 86 1016.4
20260510152223 73 28 2.6 4.3 0.00 0.00 0.00 84 1016.7
20260510151720 75 51 1.7 1.7 0.00 0.00 0.00 85 1016.4
20260510151219 73 56 0.0 1.7 0.00 0.00 0.00 88 1016.7
20260510150715 72 44 0.9 1.7 0.00 0.00 0.00 89 1016.7
20260510150210 71 46 1.7 2.6 0.00 0.00 0.00 89 1016.7
20260510145706 71 46 1.7 1.7 0.00 0.00 0.00 88 1016.9
20260510145203 71 145 0.0 1.7 0.00 0.00 0.00 89 1016.6
20260510144659 71 60 0.9 1.7 0.00 0.00 0.00 89 1016.6
20260510144156 70 59 0.0 1.7 0.00 0.00 0.00 92 1016.6
20260510143651 70 60 1.7 1.7 0.00 0.00 0.00 91 1016.6
20260510143148 70 73 0.0 1.7 0.00 0.00 0.00 92 1016.8
20260510142644 70 55 0.0 0.0 0.00 0.00 0.00 92 1016.6
20260510142141 69 55 2.6 2.6 0.00 0.00 0.00 92 1016.6
20260510141637 69 99 0.0 0.0 0.00 0.00 0.00 94 1016.4
20260510141136 68 72 1.7 2.6 0.00 0.00 0.00 94 1016.4
20260510140632 69 73 1.7 1.7 0.00 0.00 0.00 95 1016.2
20260510140131 68 86 0.0 0.0 0.00 0.00 0.00 95 1016.1
20260510135627 68 86 0.0 0.0 0.00 0.00 0.00 95 1016.3
20260510135123 68 88 1.7 1.7 0.00 0.00 0.00 96 1015.9
20260510134620 68 107 0.0 0.0 0.00 0.00 0.00 97 1015.8
20260510134117 67 107 0.0 0.0 0.00 0.00 0.00 97 1015.9
20260510133614 67 107 0.0 0.0 0.00 0.00 0.00 97 1015.9
20260510133109 66 109 0.0 0.0 0.00 0.00 0.00 97 1016.1
20260510132606 67 98 0.0 0.0 0.00 0.00 0.00 97 1016.1
20260510132103 67 95 0.0 0.0 0.00 0.00 0.00 98 1016.2
20260510131600 66 95 0.0 0.0 0.00 0.00 0.00 98 1016.1
20260510131058 66 95 0.0 0.0 0.00 0.00 0.00 98 1016.1
20260510130554 66 94 0.0 0.0 0.00 0.00 0.00 98 1016.2
20260510130052 66 94 0.0 0.0 0.00 0.00 0.00 98 1016.4
20260510125547 66 94 0.0 0.0 0.00 0.00 0.00 98 1015.9
20260510125044 65 94 0.0 0.0 0.00 0.00 0.00 98 1016.1
20260510124541 65 94 0.0 0.0 0.00 0.00 0.00 98 1016.3
20260510124038 65 98 0.0 0.0 0.00 0.00 0.00 98 1015.9
20260510123533 65 98 0.0 0.0 0.00 0.00 0.00 98 1016.1
20260510123029 65 136 0.0 0.0 0.00 0.00 0.00 98 1015.7
20260510122525 65 136 0.0 0.0 0.00 0.00 0.00 98 1015.8
20260510122021 65 135 0.0 0.0 0.00 0.00 0.00 98 1015.7
20260510121519 65 135 0.0 0.0 0.00 0.00 0.00 98 1015.5
20260510121016 65 135 0.0 0.0 0.00 0.00 0.00 98 1015.4
20260510120513 65 135 0.0 0.0 0.00 0.00 0.00 98 1015.3
20260510120009 65 135 0.0 0.0 0.00 0.00 0.00 98 1015.4
20260510115506 65 135 0.0 0.0 0.00 0.00 0.00 98 1015.2
20260510115002 64 135 0.0 0.0 0.00 0.00 0.00 98 1015.3
20260510114459 64 135 0.0 0.0 0.00 0.00 0.00 98 1015.0
20260510113954 64 135 0.0 0.0 0.00 0.00 0.00 98 1015.3
20260510113450 64 133 0.0 0.0 0.00 0.00 0.00 98 1015.0
20260510112948 64 140 0.0 0.0 0.00 0.00 0.00 98 1014.7
20260510112445 64 142 0.0 0.0 0.00 0.00 0.00 98 1014.7
20260510111941 64 142 0.0 0.0 0.00 0.00 0.00 98 1014.7
20260510111437 64 126 0.0 0.0 0.00 0.00 0.00 98 1014.5
20260510110933 64 123 0.0 0.0 0.00 0.00 0.00 98 1014.5
20260510110429 64 123 0.0 0.0 0.00 0.00 0.00 98 1014.2
20260510105925 64 123 0.0 0.0 0.00 0.00 0.00 98 1014.1
20260510105421 64 123 0.0 0.0 0.00 0.00 0.00 98 1014.0
20260510104916 64 117 0.0 0.0 0.00 0.00 0.00 98 1013.9
20260510104414 64 135 0.0 0.0 0.00 0.00 0.00 98 1014.3
20260510103910 64 117 0.0 1.7 0.00 0.00 0.00 98 1013.9
20260510103407 64 143 1.7 2.6 0.00 0.00 0.00 98 1014.0
20260510102902 64 139 1.7 2.6 0.00 0.00 0.00 98 1013.9
20260510102358 65 113 0.0 0.0 0.00 0.00 0.00 98 1013.9
20260510101856 64 139 0.0 0.0 0.00 0.00 0.00 98 1013.7
20260510101354 64 127 0.0 0.0 0.00 0.00 0.00 98 1013.6
20260510100850 64 152 2.6 2.6 0.00 0.00 0.00 98 1013.4
20260510100348 65 129 0.0 0.0 0.00 0.00 0.00 98 1013.4
20260510095844 65 109 0.0 0.0 0.00 0.00 0.00 98 1013.4
20260510095338 64 102 0.0 1.7 0.00 0.00 0.00 98 1013.5
20260510094839 64 133 0.0 0.0 0.00 0.00 0.00 98 1013.3
20260510094334 64 124 0.0 1.7 0.00 0.00 0.00 98 1013.1
20260510093831 64 120 2.6 2.6 0.00 0.00 0.00 98 1013.3
20260510093326 64 151 0.0 0.0 0.00 0.00 0.00 98 1013.2
20260510092823 64 160 1.7 2.6 0.00 0.00 0.00 98 1013.4
20260510092318 64 102 0.0 0.0 0.00 0.00 0.00 98 1013.4
20260510091815 65 124 0.0 0.0 0.00 0.00 0.00 98 1013.3
20260510091312 65 124 0.0 0.0 0.00 0.00 0.00 98 1013.1
20260510090808 65 151 2.6 2.6 0.00 0.00 0.00 98 1013.1
20260510090305 65 131 0.0 0.0 0.00 0.00 0.00 98 1013.0
20260510085755 65 136 0.0 0.0 0.00 0.00 0.00 98 1012.9
20260510085254 65 163 4.3 4.3 0.00 0.00 0.00 98 1012.6
20260510084751 65 155 0.0 0.0 0.00 0.00 0.00 98 1012.7
20260510084248 65 155 0.0 0.0 0.00 0.00 0.00 98 1013.0
20260510083744 65 155 0.0 0.0 0.00 0.00 0.00 98 1012.6
20260510083242 65 155 0.0 0.0 0.00 0.00 0.00 98 1012.5
20260510082737 65 155 0.0 0.0 0.00 0.00 0.00 97 1012.5
20260510082234 65 155 0.0 0.0 0.00 0.00 0.00 97 1012.4
20260510081733 65 155 0.0 0.0 0.00 0.00 0.00 97 1012.4
20260510081229 65 155 0.0 0.0 0.00 0.00 0.00 97 1012.4
20260510080724 65 155 0.0 0.0 0.00 0.00 0.00 97 1012.1
20260510080220 65 155 0.0 0.0 0.00 0.00 0.00 97 1012.1
20260510075717 65 155 0.0 0.0 0.00 0.00 0.00 97 1012.2
20260510075215 65 155 0.0 0.0 0.00 0.00 0.00 97 1012.3
20260510074712 65 155 0.0 0.0 0.00 0.00 0.00 97 1012.5
20260510074208 65 155 0.0 0.0 0.00 0.00 0.00 97 1012.0
20260510073705 65 155 0.0 0.0 0.00 0.00 0.00 97 1012.2
20260510073200 65 155 0.0 0.0 0.00 0.00 0.00 97 1012.3
20260510072657 65 155 0.0 0.0 0.00 0.00 0.00 97 1012.4
20260510072153 65 155 0.0 0.0 0.00 0.00 0.00 97 1012.2
20260510071650 65 155 0.0 0.0 0.00 0.00 0.00 97 1012.1
20260510071147 65 155 0.0 0.0 0.00 0.00 0.00 97 1012.2
20260510070644 65 155 0.0 0.0 0.00 0.00 0.00 97 1012.2
20260510070142 65 155 0.0 0.0 0.00 0.00 0.00 97 1012.3
20260510065637 65 155 0.0 0.0 0.00 0.00 0.00 97 1012.3
20260510065133 65 155 0.0 0.0 0.00 0.00 0.00 97 1012.0
20260510064630 65 155 0.0 0.0 0.00 0.00 0.00 97 1012.1
20260510064127 65 155 0.0 0.0 0.00 0.00 0.00 97 1012.0
20260510063624 65 155 0.0 0.0 0.00 0.00 0.00 97 1012.1
20260510063121 65 156 0.0 0.0 0.00 0.00 0.00 97 1012.3
20260510062616 66 158 1.7 2.6 0.00 0.00 0.00 97 1012.2
20260510062112 66 157 0.0 1.7 0.00 0.00 0.00 97 1012.2
20260510061608 66 161 0.0 0.0 0.00 0.00 0.00 98 1012.2
20260510061106 66 161 0.0 0.0 0.00 0.00 0.00 98 1012.2
20260510060601 66 161 0.0 0.0 0.00 0.00 0.00 98 1012.1
20260510060058 66 161 0.0 0.0 0.00 0.00 0.00 98 1012.1
20260510055549 66 161 0.0 0.0 0.00 0.00 0.00 98 1012.2
20260510055047 66 161 1.7 2.6 0.00 0.00 0.00 98 1012.6
20260510054543 65 161 0.0 0.0 0.00 0.00 0.00 98 1012.2
20260510054038 65 161 0.0 0.0 0.00 0.00 0.00 98 1012.2
20260510053538 66 161 0.0 0.0 0.00 0.00 0.00 98 1012.2
20260510053035 66 161 0.0 0.0 0.00 0.00 0.00 98 1012.1
20260510052531 66 161 0.0 0.0 0.00 0.00 0.00 98 1012.3
20260510052027 66 161 0.0 0.0 0.00 0.00 0.00 98 1012.5
20260510051523 66 161 0.0 0.0 0.00 0.00 0.00 98 1012.3
20260510051019 66 161 0.0 0.0 0.00 0.00 0.00 98 1012.4
20260510050517 66 161 0.0 0.0 0.00 0.00 0.00 98 1012.3
20260510050014 66 161 0.0 0.0 0.00 1.23 1.23 98 1012.5
20260510045511 66 161 0.0 0.0 0.00 1.23 1.23 98 1012.5
20260510045007 66 161 0.0 0.0 0.00 1.23 1.23 98 1012.5
20260510044504 66 161 0.0 0.0 0.00 1.23 1.23 98 1012.7
20260510044001 66 161 0.0 0.0 0.00 1.23 1.23 98 1012.8
20260510043456 66 161 0.0 0.0 0.00 1.23 1.23 97 1012.8
20260510042955 66 161 0.0 0.0 0.00 1.23 1.23 98 1012.5
20260510042451 66 161 0.0 0.0 0.00 1.23 1.23 98 1012.8
20260510041946 65 161 0.0 0.0 0.00 1.23 1.23 98 1013.0
20260510041444 65 161 0.0 0.0 0.00 1.23 1.23 97 1012.8
20260510040942 65 161 0.0 0.0 0.00 1.23 1.23 97 1013.1
20260510040438 65 161 0.0 0.0 0.00 1.23 1.23 97 1013.0
20260510035934 64 161 0.0 0.0 0.00 1.23 1.23 97 1012.7
20260510035431 64 161 0.0 0.0 0.00 1.23 1.23 97 1012.6
20260510034930 65 161 0.0 0.0 0.00 1.23 1.23 97 1012.8
20260510034429 65 161 0.0 0.0 0.00 1.23 1.23 97 1012.7
20260510033925 65 161 0.0 0.0 0.00 1.23 1.23 97 1012.9
20260510033422 65 161 0.0 0.0 0.00 1.23 1.23 97 1012.8
20260510032918 65 161 0.0 0.0 0.00 1.23 1.23 97 1012.9
20260510032415 65 161 0.0 0.0 0.00 1.23 1.23 97 1012.8
20260510031911 65 161 0.0 0.0 0.00 1.23 1.23 97 1012.8
20260510031406 65 161 0.0 0.0 0.00 1.23 1.23 97 1012.8
20260510030900 66 161 0.0 0.0 0.00 1.23 1.23 97 1012.7
20260510030357 66 161 0.0 0.0 0.00 1.23 1.23 97 1012.8
20260510025855 66 161 0.0 0.0 0.00 1.23 1.23 97 1012.8
20260510025352 66 161 0.0 0.0 0.00 1.23 1.23 97 1012.7
20260510024849 67 161 0.0 0.0 0.00 1.23 1.23 97 1012.4
20260510024345 67 161 0.0 0.0 0.00 1.23 1.23 97 1012.7
20260510023842 67 161 0.0 0.0 0.00 1.23 1.23 96 1012.7
20260510023338 67 161 0.0 0.0 0.00 1.23 1.23 96 1012.9
20260510022836 67 161 0.0 0.0 0.00 1.23 1.23 96 1012.5
20260510022335 67 161 0.0 0.0 0.00 1.23 1.23 96 1012.7
20260510021834 67 161 0.0 0.0 0.00 1.23 1.23 96 1012.5
20260510021332 68 161 0.0 0.0 0.00 1.23 1.23 96 1012.6
20260510020829 68 161 0.0 0.0 0.00 1.23 1.23 96 1012.5
20260510020328 68 161 0.0 0.0 0.00 1.23 1.23 97 1012.6
20260510015824 68 161 0.0 0.0 0.00 1.23 1.23 96 1012.4
20260510015321 68 161 0.0 0.0 0.00 1.23 1.23 97 1012.4
20260510014816 68 161 0.0 0.0 0.00 1.23 1.23 96 1012.2
20260510014314 68 161 0.0 0.0 0.00 1.23 1.23 96 1012.1
20260510013810 68 161 0.0 0.0 0.00 1.23 1.23 96 1012.1
20260510013306 68 161 0.0 0.0 0.00 1.23 1.23 96 1011.9
20260510012801 68 161 0.0 0.0 0.00 1.23 1.23 96 1012.1
20260510012301 68 161 0.0 0.0 0.00 1.23 1.23 96 1012.1
20260510011800 68 161 0.0 0.0 0.00 1.23 1.23 96 1011.7
20260510011256 68 161 0.0 0.0 0.00 1.23 1.23 96 1011.8
20260510010753 68 161 0.0 0.0 0.00 1.23 1.23 96 1011.6
20260510010250 68 161 0.0 0.0 0.00 1.23 1.23 96 1011.4
20260510005747 68 161 0.0 0.0 0.00 1.23 1.23 96 1011.2
20260510005243 68 161 0.0 0.0 0.00 1.23 1.23 96 1011.3
20260510004741 68 161 0.0 0.0 0.00 1.23 1.23 96 1011.1
20260510004239 68 161 0.0 0.0 0.00 1.23 1.23 96 1011.1
20260510003736 69 161 0.0 0.0 0.00 1.23 1.23 96 1011.1
20260510003232 69 161 0.0 0.0 0.00 1.23 1.23 96 1011.0
20260510002731 69 161 0.0 0.0 0.00 1.23 1.23 96 1011.1
20260510002228 69 161 0.0 0.0 0.00 1.23 1.23 96 1010.7
20260510001725 69 161 0.0 0.0 0.00 1.23 1.23 95 1010.9
20260510001224 69 161 0.0 0.0 0.00 1.23 1.23 95 1010.4
20260510000719 70 161 0.0 0.0 0.00 1.23 1.23 95 1010.4
20260510000218 70 161 0.9 1.7 0.00 1.23 1.23 95 1010.7
20260509235714 70 161 0.0 0.0 0.00 1.23 1.23 95 1010.4
20260509235210 70 161 0.0 0.0 0.00 1.23 1.23 95 1010.3
20260509234706 70 161 0.0 1.7 0.00 1.23 1.23 95 1010.5
20260509234203 70 161 0.0 0.0 0.00 1.23 1.23 94 1010.4
20260509233701 71 161 0.0 0.0 0.00 1.23 1.23 94 1010.7
20260509233159 71 161 0.0 1.7 0.00 1.23 1.23 94 1010.5
20260509232654 71 161 1.7 1.7 0.00 1.23 1.23 94 1010.2
20260509232151 71 161 0.0 0.0 0.00 1.23 1.23 94 1010.6
20260509231648 71 161 0.0 0.0 0.00 1.23 1.23 94 1010.4
20260509231145 71 161 0.0 0.0 0.00 1.23 1.23 93 1010.4
20260509230642 71 161 0.0 0.0 0.00 1.23 1.23 93 1010.3
20260509230139 72 161 0.0 0.0 0.00 1.23 1.23 92 1010.3
20260509225635 72 161 0.0 0.0 0.00 1.23 1.23 92 1010.2
20260509225131 72 161 0.0 0.0 0.00 1.23 1.23 92 1010.4
20260509224626 72 161 0.0 1.7 0.00 1.23 1.23 91 1010.3
20260509224123 72 161 0.0 0.0 0.00 1.23 1.23 91 1010.4
20260509223620 72 161 1.7 1.7 0.00 1.23 1.23 91 1010.2
20260509223118 72 161 1.7 1.7 0.00 1.23 1.23 90 1010.4
20260509222614 72 161 1.7 1.7 0.00 1.23 1.23 90 1010.1
20260509222110 72 161 0.0 0.0 0.00 1.23 1.23 90 1010.2
20260509221606 72 161 1.7 1.7 0.00 1.23 1.23 90 1010.2
20260509221102 73 161 0.0 0.0 0.00 1.23 1.23 91 1010.1
20260509220558 72 161 0.0 0.0 0.00 1.23 1.23 91 1010.1
20260509220054 72 161 0.0 0.0 0.00 1.23 1.23 89 1010.4
20260509215549 73 161 0.0 0.0 0.00 1.23 1.23 88 1010.4
20260509215047 73 161 0.0 0.0 0.00 1.23 1.23 90 1010.4
20260509214544 73 161 0.0 0.0 0.00 1.23 1.23 89 1010.1
20260509214041 73 161 0.0 0.0 0.00 1.23 1.23 86 1009.9
20260509213537 73 161 0.0 1.7 0.00 1.23 1.23 87 1009.7
20260509213034 73 161 1.7 2.6 0.00 1.23 1.23 86 1010.0
20260509212531 73 161 2.6 2.6 0.00 1.23 1.23 84 1010.3
20260509212028 74 161 0.9 1.7 0.00 1.23 1.23 85 1010.5
20260509211524 74 161 0.0 0.0 0.00 1.23 1.23 85 1009.9
20260509211021 74 161 1.7 1.7 0.00 1.23 1.23 85 1009.8
20260509210518 74 161 1.7 1.7 0.00 1.23 1.23 84 1009.8
20260509210014 74 161 0.0 0.0 0.00 1.23 1.23 82 1009.5
20260509205508 74 161 1.7 2.6 0.00 1.23 1.23 82 1009.7
20260509205004 74 161 2.6 2.6 0.00 1.23 1.23 83 1009.9
20260509204500 74 160 0.0 0.0 0.00 1.23 1.23 81 1009.6
20260509203957 73 160 0.0 0.0 0.00 1.23 1.23 85 1010.3
20260509203452 73 160 0.0 1.7 0.00 1.23 1.23 84 1010.1
20260509202950 73 160 1.7 1.7 0.00 1.23 1.23 85 1010.1
20260509202446 73 160 0.0 0.0 0.00 1.23 1.23 83 1010.1
20260509201941 73 160 1.7 1.7 0.00 1.23 1.23 84 1010.0
20260509201437 73 160 0.0 0.0 0.00 1.23 1.23 87 1009.8
20260509200934 73 159 0.0 0.0 0.00 1.23 1.23 86 1009.9
20260509200434 73 158 2.6 2.6 0.00 1.23 1.23 85 1010.0
20260509195931 73 108 2.6 2.6 0.00 1.23 1.23 87 1010.3
20260509195427 73 102 0.0 0.0 0.00 1.23 1.23 86 1010.3
20260509194926 73 102 0.0 0.0 0.00 1.23 1.23 88 1010.4
20260509194422 73 102 0.0 0.0 0.00 1.23 1.23 86 1010.2
20260509193920 73 25 0.0 0.0 0.00 1.23 1.23 87 1010.5
20260509193419 72 25 0.0 0.0 0.00 1.23 1.23 86 1010.5
20260509192915 72 25 0.0 0.0 0.00 1.23 1.23 88 1010.6
20260509192411 72 25 0.0 0.0 0.00 1.23 1.23 89 1010.4
20260509191907 71 25 0.0 0.0 0.00 1.23 1.23 89 1010.5
20260509191403 71 25 0.0 0.0 0.00 1.23 1.23 90 1010.3
20260509190859 71 25 0.0 0.0 0.00 1.23 1.23 91 1010.3
20260509190356 71 25 0.0 0.0 0.00 1.23 1.23 93 1010.4
20260509185853 70 24 0.0 0.0 0.00 1.23 1.23 93 1010.2
20260509185350 70 24 1.7 2.6 0.00 1.23 1.23 93 1010.4
20260509184847 70 25 0.0 0.0 0.00 1.23 1.23 93 1010.3
20260509184344 70 25 2.6 2.6 0.00 1.23 1.23 93 1010.7
20260509183841 70 33 0.0 0.0 0.00 1.23 1.23 93 1010.4
20260509183336 70 33 0.9 1.7 0.00 1.23 1.23 92 1010.7
20260509182832 71 47 0.0 0.0 0.00 1.23 1.23 91 1010.5
20260509182329 71 161 0.0 0.0 0.00 1.23 1.23 92 1010.8
20260509181827 71 161 0.0 0.0 0.00 1.23 1.23 90 1010.7
20260509181324 71 161 0.0 0.0 0.00 1.23 1.23 90 1011.0
20260509180821 71 161 0.0 0.0 0.00 1.23 1.23 89 1011.0
20260509180317 71 161 2.6 2.6 0.00 1.23 1.23 89 1011.2
20260509175814 71 156 0.0 0.0 0.00 1.23 1.23 91 1011.2
20260509175310 71 156 0.0 1.7 0.00 1.23 1.23 89 1010.9
20260509174806 71 156 2.6 2.6 0.00 1.23 1.23 89 1011.1
20260509174302 71 156 0.0 0.0 0.00 1.23 1.23 90 1011.2
20260509173758 71 135 2.6 2.6 0.00 1.23 1.23 91 1011.4
20260509173253 71 146 4.3 4.3 0.00 1.23 1.23 90 1011.4
20260509172749 71 90 0.9 2.6 0.00 1.23 1.23 92 1011.8
20260509172247 70 144 0.0 0.0 0.00 1.23 1.23 91 1011.6
20260509171742 70 144 2.6 2.6 0.00 1.23 1.23 91 1011.9
20260509171238 70 144 0.0 0.0 0.00 1.23 1.23 91 1011.8
20260509170735 70 144 0.0 0.0 0.00 1.23 1.23 92 1012.0
20260509170231 70 145 0.0 0.0 0.00 1.23 1.23 92 1012.1
20260509165730 70 113 0.0 0.0 0.00 1.23 1.23 91 1011.8
20260509165225 71 104 0.0 0.0 0.00 1.23 1.23 92 1012.1
20260509164721 70 104 0.0 0.0 0.00 1.23 1.23 92 1011.9